www.pogodaiklimat.ru

Погода и климат >> Архив погоды >> Россия >> Воронежская область >> Воронеж


АРХИВ ПОГОДЫ в Воронеже

Время (UTC), дата Ветер
(напр.,м/с)
 
Видим.   Явления Облачность Т
(С)
Тd
(С)
f
(%)
Тe
(С)
Тes
(С)
Комфортность P
(гПа)
Po
(гПа)
Тmin
(С)
Tmax
(С)
R
(мм)
R24
(мм)
S
(см)
06 19.08 СЗ 3 10 км 6/0
[Ac trans]
+19.4 +13.8 70 +21 +25 комфорт 1017.3 999.9
09 19.08 СЗ 2 10 км 6/0
[Ci sp]
+22.9 +15.0 61 +27 +38 душно 1017.9 1000.7
12 19.08 СВ 2 10 км 4/3 1000 м
[Cu hum Ac trans]
+25.4 +14.4 51 +28 +34 жарко 1017.6 1000.6
15 19.08 С 2 10 км 3/0
[Ac trans]
+25.5 +15.5 54 +29 +29 душно 1017.9 1000.9 +26.3
18 19.08 штиль 0 10 км ясно +19.7 +15.9 79 +22 +22 комфорт 1019.7 1002.3
21 19.08 штиль 0 10 км ясно +17.7 +14.8 83 +18 +18 тепло 1020.1 1002.5
00 20.08 штиль 0 10 км ясно +15.8 +14.0 89 +16 +16 тепло 1020.7 1003.0
03 20.08 штиль 0 10 км ясно +15.2 +14.0 93 +15 +15 по сезону 1021.7 1003.9 +14.6
06 20.08 СВ 1 10 км ясно +22.0 +15.7 67 +26 +33 душно 1022.1 1004.8
09 20.08 СВ 2 10 км 3/0
[Ac trans]
+25.5 +14.7 51 +28 +39 жарко 1021.7 1004.6
12 20.08 СВ 2 10 км ясно +27.6 +13.7 42 +29 +38 жарко 1021.0 1004.0
15 20.08 СВ 2 10 км ясно +26.8 +14.1 46 +29 +30 жарко 1021.1 1004.0 +27.8
18 20.08 С 1 10 км ясно +20.2 +14.2 68 +24 +24 комфорт 1022.4 1005.0
21 20.08 СВ 1 10 км ясно +18.1 +13.9 76 +19 +19 тепло 1023.2 1005.6
00 21.08 штиль 0 10 км ясно +15.4 +13.8 90 +15 +15 по сезону 1023.4 1005.7
03 21.08 штиль 0 10 км ясно +14.5 +13.4 93 +14 +14 по сезону 1023.9 1006.1 +14.1
06 21.08 С 1 10 км ясно +21.9 +15.4 67 +26 +33 душно 1023.9 1006.6
09 21.08 С 4 10 км 4/4 1500 м
[Cu hum]
+26.4 +15.4 51 +29 +34 жарко 1023.1 1006.0
12 21.08 СЗ 4 10 км ясно +28.4 +14.1 42 +31 +36 душно 1021.6 1004.6
15 21.08 СВ 2 10 км ясно +28.2 +14.7 44 +31 +32 душно 1021.0 1004.0 +30.9
18 21.08 СВ 1 10 км ясно +22.4 +17.0 72 +27 +27 душно 1021.4 1004.1
21 21.08 штиль 0 10 км ясно +19.0 +15.6 81 +20 +20 тепло 1021.3 1003.9
00 22.08 С 1 10 км ясно +17.4 +12.8 74 +18 +18 тепло 1021.7 1004.0
03 22.08 штиль 0 10 км ясно +15.8 +14.8 94 +16 +16 по сезону 1021.5 1003.8 +14.0
06 22.08 штиль 0 10 км ясно +23.6 +14.7 57 +26 +35 жарко 1021.2 1004.0
09 22.08 В 1 10 км 3/0
[Ac trans]
+27.8 +13.3 41 +30 +42 жарко 1020.4 1003.4
12 22.08 СВ 1 200 м 6/0
[Ac trans Ci fib]
+29.8 +11.8 33 +30 +38 жарко 1019.2 1002.4
15 22.08 С 1 10 км 6/0
[Ac trans Ci fib]
+29.2 +11.7 34 +30 +31 жарко 1019.0 1002.1 +31.5
18 22.08 штиль 0 10 км 3/0
[Ac trans]
+22.0 +14.0 60 +25 +25 комфорт 1020.1 1002.8
21 22.08 штиль 0 10 км ясно +19.2 +14.4 74 +20 +20 тепло 1020.6 1003.2
00 23.08 С 3 10 км ясно +19.8 +15.2 75 +22 +22 комфорт 1021.6 1004.2
03 23.08 С 4 10 км 6/0
[Ac trans Ci fib]
+17.6 +14.5 82 +17 +17 тепло 1022.7 1005.1 +17.4
06 23.08 С 2 10 км 8/0
[Ac trans Ci fib]
+19.9 +15.0 73 +23 +27 комфорт 1023.6 1006.2
09 23.08 С 2 10 км 8/0
[Ac trans Ci fib]
+23.7 +16.2 63 +27 +35 жарко 1023.3 1006.1
12 23.08 С 4 10 км 8/0
[Ci sp]
+24.9 +16.1 58 +28 +33 жарко 1023.1 1005.9
15 23.08 С 3 10 км 8/0
[Ci fib]
+24.1 +15.7 59 +27 +28 жарко 1023.0 1005.8 +25.6
18 23.08 СВ 2 10 км 4/0
[Ci fib]
+21.0 +13.8 63 +24 +24 комфорт 1023.8 1006.4
21 23.08 С 2 10 км 4/0
[Ac trans]
+18.9 +12.9 68 +20 +20 тепло 1023.9 1006.3
00 24.08 С 2 10 км 4/0
[Ac trans]
+17.3 +11.8 70 +18 +18 тепло 1024.1 1006.4
03 24.08 С 2 10 км 3/0
[Ac trans]
+16.1 +11.3 73 +16 +16 по сезону 1024.6 1006.9 +16.1
06 24.08 С 2 10 км ясно +19.3 +11.5 61 +21 +27 комфорт 1024.6 1007.0
09 24.08 С 3 10 км ясно +24.9 +10.4 40 +26 +36 жарко 1023.4 1006.2
12 24.08 С 3 10 км ясно +26.8 +10.0 35 +27 +34 жарко 1022.2 1005.1
15 24.08 С 2 10 км ясно +26.2 +8.3 32 +26 +27 жарко 1021.7 1004.6 +27.4
18 24.08 СЗ 3 10 км ясно +19.8 +6.2 41 +21 +21 комфорт 1022.7 1005.1
21 24.08 С 1 10 км ясно +17.8 +6.0 46 +19 +19 тепло 1022.5 1004.8
00 25.08 С 2 10 км ясно +16.0 +6.7 54 +16 +16 тепло 1022.8 1005.1
03 25.08 СЗ 2 10 км 3/0
[Ci fib]
+13.6 +8.4 71 +13 +13 по сезону 1023.4 1005.5 +12.5
06 25.08 С 2 10 км ясно +21.6 +10.7 50 +23 +29 комфорт 1023.4 1006.1
09 25.08 СВ 3 10 км 6/6 1500 м
[Cu hum]
+24.4 +12.6 48 +26 +30 жарко 1023.3 1006.1
12 25.08 СВ 4 10 км 6/6 1500 м
[Cu hum]
+25.8 +10.5 38 +27 +29 жарко 1022.8 1005.7
15 25.08 С 2 10 км 1/0
[Ci fib]
+24.2 +10.1 41 +25 +26 комфорт 1023.3 1006.1 +27.0
18 25.08 С 2 10 км ясно +20.2 +8.8 48 +22 +22 комфорт 1024.7 1007.3
21 25.08 С 3 10 км ясно +17.4 +9.6 60 +17 +17 тепло 1026.6 1008.8
00 26.08 СВ 2 10 км ясно +14.3 +10.3 77 +14 +14 по сезону 1027.5 1009.6
03 26.08 С 1 10 км 3/0
[Ci]
+12.2 +10.3 88 +12 +12 прохладно 1028.8 1010.8 +9.9

 

Местоположение метеостанции Воронеж (Воронежская область, Россия): широта 51.70 долгота 39.21 высота над уровнем моря 149 м.

В архиве по умолчанию представлена погода в Воронеже за последнюю неделю. Архивные данные за месяц целиком и за предыдущие месяцы, начиная с января 2011 года, Вы можете получить, выбрав интересующий диапазон дат из раскрывающегося списка и нажав кнопку "Ввод!".


*Определитесь, кто Вы:
робот инопланетянин человек

Внимание! Время в таблицах - всемирное. Для получения местного времени необходимо прибавить поправку, которая равна 3 ч.

Смотрите также архив погоды в соседних городах и на ближайших метеорологических станциях:

Погода в Конь-Колодезе (Липецкая область, Россия) (50 км)
Погода в Нижнедевицке (Воронежская область, Россия) (60 км)
Погода в Лисках (Воронежская область, Россия) (80 км)
Погода в Анне (Воронежская область, Россия) (87 км)
Погода в Старом Осколе (Белгородская область, Россия) (102 км)
Погода в Липецке (Липецкая область, Россия) (113 км)
Погода в Ельце (Липецкая область, Россия) (114 км)
Погода в Каменной Степи (Воронежская область, Россия) (126 км)
Погода в Совхозе им. Ленина (Тамбовская область, Россия) (127 км)
Погода в Ливнах (Орловская область, Россия) (137 км)

Пояснения к столбцам:

Ветер - указаны скорость ветра в м/с - средняя за 10 мин, порывы в срок и между сроками (в фигурных скобках) и направление, откуда дует ветер: С - северный, СВ - северо-восточный, В - восточный, ЮВ - юго-восточный, Ю - южный, ЮЗ - юго-западный, З - западный, СЗ - северо-западный.
Видимость - горизонтальная дальность видимости в метрах или километрах. При видимости от 1 до 10 км при отсутствии осадков обычно наблюдается дымка, при ухудшении видимости до 1 км и менее - туман. В сухую погоду видимость может ухудшаться дымом, пылью или мглою.
Явления - указаны атмосферные явления, наблюдавшиеся в срок или в последний час перед сроком; фигурными скобками обозначены явления, наблюдавшиеся между сроками (за 1-3 часа до срока); квадратными скобками обозначены град или гололедные отложения с указанием их диаметра в мм.
Облачность - указаны через наклонную черту общая и нижняя облачность в баллах и высота нижней границы облаков в метрах; квадратными скобками обозначены формы облаков: Ci - перистые, Cs - перисто-слоистые, Cc - перисто-кучевые, Ac - высококучевые, As - высокослоистые, Sc - слоисто-кучевые, Ns - слоисто-дождевые, Cu - кучевые, Cb - кучево-дождевые. Подробнее классификацию облаков см. в Атласе облаков (PDF).
T - Температура воздуха - температура, измеренная на высоте 2 м над землей.
Td - Температура точки росы - температура, при понижении до которой содержащийся в воздухе водяной пар достигнет насыщения.
f - Относительная влажность воздуха - влажноcть воздуха, измеренная на высоте 2 м над землей.
Te - Эффективная температура - температура, которую ощущает одетый по сезону человек в тени. Характеристика душности погоды. При расчете учитывается влияние влажности воздуха и скорости ветра на теплоощущения человека.
Tes - Эффективная температура на солнце - температура, которую ощущает человек, с поправкой на солнечный нагрев. Характеристика знойности погоды. Зависит от высоты солнца над горизонтом, облачности и скорости ветра. Ночью, в пасмурную погоду, а также при ветре 12 м/с и более поправка равна нулю.
P - Атмосферное давление - приведенное к уровню моря атмосферное давление.
Po - Атмосферное давление - измеренное на уровне метеостанции атмосферное давление.
Tmin - Минимальная температура - минимум температуры воздуха на высоте 2 м над землей.
Tmax - Максимальная температура - максимум температуры воздуха на высоте 2 м над землей.
R - Количество осадков - Количество выпавших осадков за период времени, мм. При наведении курсора мыши на число - период времени, за который выпало указанное количество осадков.
R24 - Количество осадков - Количество выпавших осадков за 24 часа, мм.
S - Снежный покров - Высота снежного покрова, см. При наведении курсора мыши на число - состояние снежного покрова и степень покрытия местности в баллах.